Regional Weather Roundup
Issued by NWS

Home | Current Version | Previous Version | Text Only | Print | Product List | Glossary Off
Versions: 1 2 3 4 5 6 7 8 9 10 11 12 13 14 15 16 17 18 19 20 21 22 23 24 25 26 27 28 29 30 31 32 33 34 35 36 37 38 39 40 41 42 43 44 45 46 47 48 49 50

000
ASUS45 KABQ 212210
RWRNM
NEW MEXICO REGIONAL WEATHER ROUNDUP
NATIONAL WEATHER SERVICE ALBUQUERQUE NM
400 PM MDT SAT OCT 21 2017

NOTE: "FAIR" MEANS FEW OR NO CLOUDS BELOW 12,000 FEET AGL WITH NO
       SIGNIFICANT WEATHER OR OBSTRUCTIONS TO VISION.

      THIS PRODUCT IS RELEASED AS TWO VERSIONS.  ONE VERSION NEAR
      THE TOP OF THE HOUR CONTAINING PRELIMINARY DATA FROM ALBUQUERQUE
      AND OTHER STATIONS.  A FINAL VERSION WITH ADDITIONAL DATA IS
      ISSUED ABOUT 10 MINUTES AFTER THE HOUR.

NMZ501-503-504-510>518-212300-
NORTHWEST PLATEAU/NORTHCENTRAL MOUNTAINS

CITY           SKY/WX    TMP DP  RH WIND       PRES   REMARKS
FARMINGTON     FAIR      56   0  10 W22G29    30.14R
LOS ALAMOS     FAIR      56   4  12 W15G25    30.10R
SANTA FE       FAIR      61   5  10 W20G28    30.06R
TAOS           FAIR      56  10  16 W17       30.09R
ANGEL FIRE     FAIR      50  10  20 SW21G26   30.10S

$$
NMZ402-403-502-505>509-212300-
WESTCENTRAL MOUNTAINS/SOUTHWEST MOUNTAINS

CITY           SKY/WX    TMP DP  RH WIND       PRES   REMARKS
GALLUP         FAIR      60   3  10 W16       30.17R
GRANTS         FAIR      61  17  18 N13G23    30.16R
SILVER CITY    FAIR      72  31  22 W17G26    30.08R

$$
NMZ407-409-411-412-212300-
SOUTHERN DESERTS

CITY           SKY/WX    TMP DP  RH WIND       PRES   REMARKS
DEMING         FAIR      78  29  16 W16G25    30.02R
LAS CRUCES     FAIR      78  28  15 W14       30.02S
HOLLOMAN AFB   FAIR      76  35  23 NW8       30.01S
ALAMOGORDO     FAIR      75  34  22 W9G21     30.00F
T OR C         FAIR      76  25  15 NW15G23   30.02R

$$
NMZ519>523-212300-
CENTRAL VALLEYS/CENTRAL HIGHLANDS

CITY           SKY/WX    TMP DP  RH WIND       PRES   REMARKS
ALBUQUERQUE    FAIR      64  13  13 NW20      30.10R
MORIARTY ARPT  FAIR      63  16  16 NW15G22   30.11R
CLINES CORNERS NOT AVBL
BELEN          FAIR      69  20  15 NW23      30.08R
SOCORRO        FAIR      73  22  14 NW14G24   30.04S

$$
NMZ524>526-539-540-212300-
SOUTHCENTRAL MOUNTAINS

CITY           SKY/WX    TMP DP  RH WIND       PRES   REMARKS
RUIDOSO        FAIR      59  28  31 NW17G29   30.13R

$$
NMZ527>531-212300-
NORTHEAST HIGHLANDS/NORTHEAST PLAINS

CITY           SKY/WX    TMP DP  RH WIND       PRES   REMARKS
LAS VEGAS      FAIR      59  11  15 NW20      30.04R
RATON          LGT RAIN  56  33  42 E15       30.00R
CLAYTON        FAIR      59  26  28 NE18      30.01R

$$
NMZ532>537-212300-
EASTCENTRAL PLAINS

CITY           SKY/WX    TMP DP  RH WIND       PRES   REMARKS
SANTA ROSA     FAIR      69  24  18 W22G31    29.95S
TUCUMCARI      FAIR      64  34  32 E18G25    29.94R
CANNON AFB     FAIR      72  32  23 W25       29.93R
CLOVIS AIRPORT FAIR      71  36  27 W16       29.93R

$$
NMZ028-029-538-212300-
SOUTHEAST PLAINS

CITY           SKY/WX    TMP DP  RH WIND       PRES   REMARKS
ROSWELL        FAIR      80  33  18 W20G28    29.92R
ARTESIA        FAIR      81  36  19 NW23G31   29.92R
CARLSBAD       FAIR      81  39  22 W21G32    29.88R
HOBBS          PTSUNNY   79  41  25 W14G22    29.91R


$$




USA.gov is the U.S. government's official web portal to all federal, state and local government web resources and services.